Regional Weather Roundup
Issued by NWS

Home | Current Version | Previous Version | Graphics & Text | Print | Product List | Glossary On
Versions: 1 2 3 4 5 6 7 8 9 10 11 12 13 14 15 16 17 18 19 20 21 22 23 24 25 26 27 28 29 30 31 32 33 34 35 36 37 38 39 40 41 42 43 44 45 46 47 48 49 50
000
ASUS43 KMPX 020510
RWRMN
WEATHER ROUNDUP FOR MINNESOTA
NATIONAL WEATHER SERVICE TWIN CITIES/CHANHASSEN MN
1100 PM CST SUN MAR 01 2015


NOTE: "FAIR" INDICATES FEW OR NO CLOUDS BELOW 12,000 FEET WITH NO
SIGNIFICANT WEATHER AND/OR OBSTRUCTIONS TO VISIBILITY. N/A MEANS
CURRENT SKY AND/OR WEATHER CONDITIONS ARE NOT AVAILABLE.

MNZ060>063-068>070-020600-
   Twin Cities Metro

CITY           SKY/WX    TMP DP  RH WIND       PRES   REMARKS
TWIN CITIES    MOCLDY    20  10  65 NW17      30.37R WCI   5
ST PAUL        CLOUDY    22  10  60 NW21      30.38R WCI   6
CRYSTAL        CLOUDY    22  11  62 NW12      30.36R WCI  10
BLAINE         CLOUDY    23  12  63 NW9       30.35R WCI  13
EDEN PRAIRIE   PTCLDY    20  10  65 NW10      30.37R WCI   9
SOUTH ST PAUL  CLOUDY    23  12  63 NW12G20   30.36R WCI  11
LAKE ELMO      CLOUDY    23  14  68 NW16G22   30.36R WCI  10
$$
MNZ001>005-007-008-013>017-022>024-027-028-020600-
   Northwest Minnesota

CITY           SKY/WX    TMP DP  RH WIND       PRES   REMARKS
BEMIDJI        CLEAR      4   2  89 W7        30.30R WCI  -8
HALLOCK        CLEAR      3   0  85 W6        30.31S WCI  -8
ROSEAU         CLEAR     12   7  79 W7        30.28R WCI   2
WARROAD        CLEAR      7   1  78 SW7       30.27R WCI  -5
THIEF RVR FALL MOCLDY     9   3  78 SW8       30.32S WCI  -4
CROOKSTON      PTCLDY    10   5  79 W8        30.36S WCI  -1
FOSSTON        PTCLDY    -2  -6  84 CALM      30.33S
DETROIT LAKES  PTCLDY    10   9  92 W6        30.36R WCI   1
MOORHEAD       CLEAR      9   7  92 W8        30.41R WCI  -4
PARK RAPIDS    CLEAR      1  -3  83 W6        30.32R WCI -10
MAHNOMEN       MOCLDY    -1  -4  85 SW7       30.35R WCI -14
$$
MNZ006-009>011-018-025>026-020600-
   North Central Minnesota

CITY           SKY/WX    TMP DP  RH WIND       PRES   REMARKS
BAUDETTE       CLEAR      8   3  80 W10       30.25R WCI  -6
FLAG ISLAND    CLEAR     10   3  72 W6        30.24R WCI   1
INTL FALLS     CLOUDY    10   3  73 W12       30.24R WCI  -5
WASKISH        CLEAR      3   1  92 CALM      30.29R
BIG FORK       CLEAR      9   3  78 W5        30.28R WCI   0
LONGVILLE      CLEAR      9   3  78 W7        30.32R WCI  -3
GRAND RAPIDS   CLEAR     10   5  79 W13       30.28R WCI  -5
CRANE LAKE     MOCLDY    10   3  72 W6        30.25R WCI   1
ORR            CLEAR      9   1  72 W3        30.22R
COOK           CLEAR     10   5  79 W10       30.24R WCI  -3
WALKER         FAIR       7   4  88 W6        30.32R WCI  -3
$$
MNZ012-019>021-037-020600-
   Northeast Minnesota

CITY           SKY/WX    TMP DP  RH WIND       PRES   REMARKS
DULUTH         PTCLDY    13   5  70 NW13      30.23R WCI  -2
ELY            CLOUDY    12   9  85 W9G16     30.19R WCI   0
HIBBING        CLEAR     10   3  73 W10       30.25R WCI  -4
EVELETH        MOCLDY    12   5  73 W10G17    30.25R WCI  -1
DULUTH HARBOR  PTCLDY    18   9  68 W15       30.31R WCI   3
SILVER BAY     PTCLDY    16   7  67 W8        30.19R WCI   5
GRAND MARAIS     N/A     17   3  54 W7        30.19R WCI   8
G MARAIS ARPRT PTCLDY    10   0  61 W15G21    30.08R WCI  -6
$$
MNZ029>031-032-039>041-046>048-054>057-064-020600-
   West Central Minnesota

CITY           SKY/WX    TMP DP  RH WIND       PRES   REMARKS
FERGUS FALLS   CLEAR      7   1  78 W7        30.43R WCI  -5
MORRIS         CLEAR     10   5  79 W6        30.40R WCI   1
ALEXANDRIA     CLEAR     10   6  84 NW7       30.36R WCI  -1
ELBOW LAKE     FAIR      10   8  92 NW7       30.39R WCI  -2
WADENA         FAIR       7   3  85 W5        30.34R WCI  -2
APPLETON       CLEAR     12   9  85 NW7       30.42S WCI   2
BENSON         CLEAR     12   7  79 N8        30.42R WCI   1
ORTONVILLE     CLEAR     12   7  79 NW8       30.42S WCI   1
MADISON        CLEAR     12   9  85 W7        30.44R WCI   2
WILLMAR        FAIR      16   9  73 NW9       30.41R WCI   4
$$
MNZ033>034-036-042>043-049>051-058-059-020600-
   Central Minnesota

CITY           SKY/WX    TMP DP  RH WIND       PRES   REMARKS
ST CLOUD       PTCLDY    16   8  71 NW9       30.36R WCI   4
SAUK CENTRE    FAIR      13   8  79 NW9       30.36S WCI   1
PAYNESVILLE    CLEAR     13   9  82 W9        30.39R WCI   1
PINE RIVER     CLEAR      9   7  92 CALM      30.35S
BRAINERD       CLEAR     13   6  74 W9        30.34R WCI   1
STAPLES        CLEAR      5   3  92 SW3       30.35R
LONG PRAIRIE   FAIR      12   7  79 W7        30.36S WCI   2
LITTLE FALLS   CLEAR     14   9  79 NW6       30.36S WCI   5
LITCHFIELD     CLEAR     16  12  86 W5        30.39R WCI   9
BUFFALO        CLEAR     18  10  73 W8        30.39R WCI   7
MAPLE LAKE     FAIR      18  13  80 W8        30.39R WCI   7
$$
MNZ037-044-045-052-053-020600-
   East Central Minnesota

CITY           SKY/WX    TMP DP  RH WIND       PRES   REMARKS
PRINCETON      PTCLDY    18  10  73 W9        30.36R WCI   6
MORA           CLEAR     18   9  68 NW7       30.35R WCI   8
CAMBRIDGE      PTCLDY    19  10  68 NW8G16    30.33R WCI   9
RUSH CITY      CLEAR     16   9  75 NW9       30.35R WCI   4
MOOSE LAKE     MOCLDY    16   7  67 NW8       30.30R WCI   5
HINCKLEY       FAIR      18  10  73 NW6       30.32R WCI   9
CLOQUET        MOCLDY    14   5  67 W12       30.27R WCI   0
MCGREGOR       CLEAR     14   9  79 NW8       30.31R WCI   3
$$
MNZ071>073-080-081-089-090-097-098-020600-
   Southwest Minnesota

CITY           SKY/WX    TMP DP  RH WIND       PRES   REMARKS
MONTEVIDEO     CLEAR     14  10  85 NW6       30.44R WCI   5
GRANITE FALLS  CLEAR     11   8  87 W10       30.45R WCI  -3
CANBY          CLEAR     14  10  81 W6        30.45R WCI   5
MARSHALL       CLEAR     12   5  73 NW9       30.44R WCI   0
REDWOOD FALLS  CLEAR     16  10  77 W9        30.42R WCI   4
OLIVIA         CLEAR     16  12  86 NW9       30.41R WCI   4
PIPESTONE      CLEAR      9   7  92 CALM      30.41R
WINDOM         CLEAR     14  10  85 W7        30.41R WCI   4
WORTHINGTON    CLEAR     27   9  46 NW9       30.43R WCI  17
JACKSON        CLEAR     19  12  73 NW10      30.41R WCI   8
TRACY          CLEAR     17  11  80 W6        30.42R WCI   8
SLAYTON        CLEAR     15  10  80 CALM      30.41R
$$
MNZ065>067-074>077-082>085-091>093-020600-
   South Central Minnesota

CITY           SKY/WX    TMP DP  RH WIND       PRES   REMARKS
MANKATO        CLEAR     19  10  68 NW13      30.40R WCI   7
NEW ULM        CLEAR     18  10  73 W8G16     30.42R WCI   7
ST JAMES       CLEAR     18  12  79 W12       30.43R WCI   5
FAIRMONT       CLEAR     19  10  68 NW12      30.40R WCI   7
GLENCOE        CLEAR     18  14  82 W9        30.39R WCI   7
FARIBAULT      CLEAR     19  12  73 W13       30.38R WCI   7
OWATONNA       CLEAR     19  12  73 W14       30.37R WCI   6
WASECA         CLEAR     19  12  73 NW12      30.41R WCI   7
ALBERT LEA     CLEAR     18  12  79 NW8       30.38R WCI   7
$$
MNZ078>079-086>088-094>096-020600-
   Southeast Minnesota

CITY           SKY/WX    TMP DP  RH WIND       PRES   REMARKS
ROCHESTER      CLEAR     19  12  74 NW18      30.33R WCI   4
RED WING       CLOUDY    25  12  58 NW9       30.34R WCI  15
STANTON        CLEAR     21  14  74 W12       30.35R WCI   9
DODGE CENTER   CLEAR     19  16  86 NW15      30.34R WCI   5
WINONA         CLEAR     23  16  74 W12G21    30.35R WCI  12
AUSTIN         CLEAR     19  12  73 NW15      30.36R WCI   5
PRESTON        CLEAR     18  13  81 NW14      30.33R WCI   4
$$
ABBREVIATIONS USED IN REMARKS
   TC - TEMPERATURES IN CELSIUS
  WCI - WIND CHILL INDEX
   HX - HEAT INDEX
  VSB - VISIBILITY
$$


USA.gov is the U.S. government's official web portal to all federal, state and local government web resources and services.